Time,TemperatureF,DewpointF,PressureIn,WindDirection,WindDirectionDegrees,WindSpeedMPH,WindSpeedGustMPH,Humidity,HourlyPrecipIn,Conditions,Clouds,dailyrainin,SoftwareType,DateUTC
2013-01-21 00:04:00,22.0,-99.9,30.15,West,264,15.0,19.0,-999,-99.99,,,-99.99,,2013-01-21 05:04:00,
2013-01-21 00:13:00,23.0,-99.9,-100.00,West,261,15.0,21.0,-999,-99.99,,,-99.99,,2013-01-21 05:13:00,
2013-01-21 00:23:00,-999.0,-99.9,-100.00,WSW,252,15.0,19.0,-999,-99.99,,,-99.99,,2013-01-21 05:23:00,
2013-01-21 00:34:00,22.0,-99.9,30.14,West,272,17.0,21.0,-999,-99.99,,,-99.99,,2013-01-21 05:34:00,
2013-01-21 00:43:00,23.0,-99.9,30.14,West,272,18.0,21.0,-999,-99.99,,,-99.99,,2013-01-21 05:43:00,
2013-01-21 01:03:00,23.0,-99.9,30.13,West,276,19.0,23.0,-999,-99.99,,,-99.99,,2013-01-21 06:03:00,
2013-01-21 01:13:00,23.0,-99.9,30.12,West,266,16.0,22.0,-999,-99.99,,,-99.99,,2013-01-21 06:13:00,
2013-01-21 01:43:00,22.0,-99.9,-100.00,West,268,17.0,21.0,-999,-99.99,,,-99.99,,2013-01-21 06:43:00,
2013-01-21 01:53:00,-999.0,-99.9,-100.00,WSW,257,16.0,21.0,-999,-99.99,,,-99.99,,2013-01-21 06:53:00,
2013-01-21 02:13:00,22.0,-99.9,30.11,West,271,17.0,21.0,-999,-99.99,,,-99.99,,2013-01-21 07:13:00,
2013-01-21 02:23:00,-999.0,-99.9,-100.00,West,266,16.0,20.0,-999,-99.99,,,-99.99,,2013-01-21 07:23:00,
2013-01-21 02:43:00,21.0,-99.9,-100.00,WSW,244,10.0,18.0,-999,-99.99,,,-99.99,,2013-01-21 07:43:00,
2013-01-21 03:14:00,21.0,-99.9,-100.00,SW,226,11.0,16.0,-999,-99.99,,,-99.99,,2013-01-21 08:14:00,
2013-01-21 03:43:00,21.0,-99.9,-100.00,WSW,242,11.0,17.0,-999,-99.99,,,-99.99,,2013-01-21 08:43:00,
2013-01-21 03:53:00,-999.0,-99.9,-100.00,SW,234,11.0,16.0,-999,-99.99,,,-99.99,,2013-01-21 08:53:00,
2013-01-21 04:03:00,21.0,-99.9,30.10,SW,227,11.0,16.0,-999,-99.99,,,-99.99,,2013-01-21 09:03:00,
2013-01-21 04:13:00,-999.0,-99.9,-100.00,SW,229,10.0,17.0,-999,-99.99,,,-99.99,,2013-01-21 09:13:00,
2013-01-21 04:33:00,21.0,-99.9,30.09,WSW,245,14.0,19.0,-999,-99.99,,,-99.99,,2013-01-21 09:33:00,
2013-01-21 04:43:00,21.0,-99.9,-100.00,WSW,243,15.0,21.0,-999,-99.99,,,-99.99,,2013-01-21 09:43:00,
2013-01-21 04:53:00,-999.0,-99.9,-100.00,WSW,251,16.0,21.0,-999,-99.99,,,-99.99,,2013-01-21 09:53:00,
2013-01-21 05:12:00,20.0,-99.9,-100.00,WSW,255,13.0,17.0,-999,-99.99,,,-99.99,,2013-01-21 10:12:00,
2013-01-21 05:23:00,-999.0,-99.9,-100.00,SW,227,11.0,17.0,-999,-99.99,,,-99.99,,2013-01-21 10:23:00,
2013-01-21 05:33:00,20.0,-99.9,30.07,WSW,242,12.0,16.0,-999,-99.99,,,-99.99,,2013-01-21 10:33:00,
2013-01-21 05:53:00,20.0,-99.9,30.07,WSW,253,10.0,19.0,-999,-99.99,,,-99.99,,2013-01-21 10:53:00,
2013-01-21 06:13:00,20.0,-99.9,30.06,SW,235,10.0,15.0,-999,-99.99,,,-99.99,,2013-01-21 11:13:00,
2013-01-21 06:23:00,-999.0,-99.9,-100.00,SW,229,10.0,15.0,-999,-99.99,,,-99.99,,2013-01-21 11:23:00,
2013-01-21 06:33:00,20.0,-99.9,30.06,SW,225,11.0,15.0,-999,-99.99,,,-99.99,,2013-01-21 11:33:00,
2013-01-21 06:43:00,20.0,-99.9,30.06,SW,217,9.0,15.0,-999,-99.99,,,-99.99,,2013-01-21 11:43:00,
2013-01-21 07:43:00,20.0,-99.9,30.05,SW,222,10.0,15.0,-999,-99.99,,,-99.99,,2013-01-21 12:43:00,
2013-01-21 07:53:00,-999.0,-99.9,-100.00,WSW,239,11.0,16.0,-999,-99.99,,,-99.99,,2013-01-21 12:53:00,
2013-01-21 08:13:00,20.0,-99.9,-100.00,SW,230,13.0,17.0,-999,-99.99,,,-99.99,,2013-01-21 13:13:00,
2013-01-21 08:33:00,20.0,-99.9,30.04,WSW,244,10.0,18.0,-999,-99.99,,,-99.99,,2013-01-21 13:33:00,
2013-01-21 08:43:00,20.0,-99.9,30.04,SW,232,11.0,17.0,-999,-99.99,,,-99.99,,2013-01-21 13:43:00,
2013-01-21 09:04:00,20.0,-99.9,30.04,SW,233,12.0,17.0,-999,-99.99,,,-99.99,,2013-01-21 14:04:00,
2013-01-21 09:33:00,20.0,-99.9,30.03,SW,223,10.0,17.0,-999,-99.99,,,-99.99,,2013-01-21 14:33:00,
2013-01-21 09:43:00,20.0,-99.9,-100.00,SW,235,12.0,17.0,-999,-99.99,,,-99.99,,2013-01-21 14:43:00,
2013-01-21 10:03:00,20.0,-99.9,30.03,SW,226,13.0,18.0,-999,-99.99,,,-99.99,,2013-01-21 15:03:00,
2013-01-21 10:14:00,20.0,-99.9,30.03,SW,220,10.0,15.0,-999,-99.99,,,-99.99,,2013-01-21 15:14:00,
2013-01-21 10:33:00,21.0,-99.9,30.03,WSW,244,13.0,21.0,-999,-99.99,,,-99.99,,2013-01-21 15:33:00,
2013-01-21 10:43:00,21.0,-99.9,-100.00,SW,232,11.0,17.0,-999,-99.99,,,-99.99,,2013-01-21 15:43:00,
2013-01-21 10:53:00,-999.0,-99.9,-100.00,WSW,239,11.0,23.0,-999,-99.99,,,-99.99,,2013-01-21 15:53:00,
2013-01-21 11:13:00,-999.0,-99.9,-100.00,SW,230,11.0,19.0,-999,-99.99,,,-99.99,,2013-01-21 16:13:00,
2013-01-21 11:33:00,21.0,-99.9,30.00,WSW,250,19.0,24.0,-999,-99.99,,,-99.99,,2013-01-21 16:33:00,
2013-01-21 11:44:00,21.0,-99.9,-100.00,WSW,255,15.0,22.0,-999,-99.99,,,-99.99,,2013-01-21 16:44:00,
2013-01-21 11:53:00,-999.0,-99.9,-100.00,SW,235,13.0,20.0,-999,-99.99,,,-99.99,,2013-01-21 16:53:00,
2013-01-21 12:13:00,21.0,-99.9,-100.00,WSW,255,19.0,22.0,-999,-99.99,,,-99.99,,2013-01-21 17:13:00,
2013-01-21 12:33:00,21.0,-99.9,29.97,WSW,251,15.0,21.0,-999,-99.99,,,-99.99,,2013-01-21 17:33:00,
2013-01-21 12:53:00,21.0,-99.9,29.96,WSW,238,16.0,21.0,-999,-99.99,,,-99.99,,2013-01-21 17:53:00,
2013-01-21 13:03:00,22.0,-99.9,29.95,WSW,252,22.0,28.0,-999,-99.99,,,-99.99,,2013-01-21 18:03:00,
2013-01-21 13:12:00,22.0,-99.9,-100.00,WSW,249,18.0,26.0,-999,-99.99,,,-99.99,,2013-01-21 18:12:00,
2013-01-21 13:23:00,-999.0,-99.9,-100.00,WSW,257,21.0,25.0,-999,-99.99,,,-99.99,,2013-01-21 18:23:00,
2013-01-21 13:43:00,22.0,-99.9,29.95,West,275,21.0,27.0,-999,-99.99,,,-99.99,,2013-01-21 18:43:00,
2013-01-21 13:53:00,-999.0,-99.9,-100.00,WSW,257,24.0,27.0,-999,-99.99,,,-99.99,,2013-01-21 18:53:00,
2013-01-21 14:13:00,-999.0,-99.9,-100.00,West,273,23.0,29.0,-999,-99.99,,,-99.99,,2013-01-21 19:13:00,
2013-01-21 14:23:00,22.0,-99.9,29.96,West,273,27.0,34.0,-999,-99.99,,,-99.99,,2013-01-21 19:23:00,
2013-01-21 14:43:00,21.0,-99.9,29.96,West,264,25.0,28.0,-999,-99.99,,,-99.99,,2013-01-21 19:43:00,
2013-01-21 15:04:00,21.0,-99.9,29.96,West,270,24.0,28.0,-999,-99.99,,,-99.99,,2013-01-21 20:04:00,
2013-01-21 15:12:00,21.0,-99.9,29.96,West,265,24.0,34.0,-999,-99.99,,,-99.99,,2013-01-21 20:12:00,
2013-01-21 15:23:00,-999.0,-99.9,-100.00,West,267,27.0,31.0,-999,-99.99,,,-99.99,,2013-01-21 20:23:00,
2013-01-21 15:33:00,21.0,-99.9,29.97,West,273,26.0,30.0,-999,-99.99,,,-99.99,,2013-01-21 20:33:00,
2013-01-21 15:43:00,-999.0,-99.9,-100.00,West,269,28.0,35.0,-999,-99.99,,,-99.99,,2013-01-21 20:43:00,
2013-01-21 15:53:00,21.0,-99.9,29.98,West,264,29.0,32.0,-999,-99.99,,,-99.99,,2013-01-21 20:53:00,
2013-01-21 16:04:00,19.0,-99.9,29.99,WSW,245,21.0,35.0,-999,-99.99,,,-99.99,,2013-01-21 21:04:00,
2013-01-21 16:13:00,19.0,-99.9,29.99,WSW,239,19.0,28.0,-999,-99.99,,,-99.99,,2013-01-21 21:13:00,
2013-01-21 16:33:00,20.0,-99.9,29.99,West,276,31.0,37.0,-999,-99.99,,,-99.99,,2013-01-21 21:33:00,
2013-01-21 16:43:00,19.0,-99.9,29.99,West,267,24.0,33.0,-999,-99.99,,,-99.99,,2013-01-21 21:43:00,
2013-01-21 16:54:00,-999.0,-99.9,-100.00,WSW,247,20.0,29.0,-999,-99.99,,,-99.99,,2013-01-21 21:54:00,
2013-01-21 17:04:00,19.0,-99.9,30.01,West,259,24.0,30.0,-999,-99.99,,,-99.99,,2013-01-21 22:04:00,
2013-01-21 17:13:00,-999.0,-99.9,-100.00,West,270,29.0,38.0,-999,-99.99,,,-99.99,,2013-01-21 22:13:00,
2013-01-21 17:33:00,18.0,-99.9,30.01,WSW,257,26.0,32.0,-999,-99.99,,,-99.99,,2013-01-21 22:33:00,
2013-01-21 17:43:00,18.0,-99.9,30.01,WSW,252,22.0,37.0,-999,-99.99,,,-99.99,,2013-01-21 22:43:00,
2013-01-21 18:13:00,17.0,-99.9,30.02,WSW,242,21.0,34.0,-999,-99.99,,,-99.99,,2013-01-21 23:13:00,
2013-01-21 18:23:00,-999.0,-99.9,-100.00,West,273,31.0,36.0,-999,-99.99,,,-99.99,,2013-01-21 23:23:00,
2013-01-21 18:33:00,17.0,-99.9,30.02,WSW,248,23.0,31.0,-999,-99.99,,,-99.99,,2013-01-21 23:33:00,
2013-01-21 18:43:00,-999.0,-99.9,-100.00,WSW,240,19.0,33.0,-999,-99.99,,,-99.99,,2013-01-21 23:43:00,
2013-01-21 18:53:00,16.0,-99.9,30.02,West,275,24.0,32.0,-999,-99.99,,,-99.99,,2013-01-21 23:53:00,
2013-01-21 19:03:00,18.0,-99.9,30.03,West,280,26.0,31.0,-999,-99.99,,,-99.99,,2013-01-22 00:03:00,
2013-01-21 19:12:00,16.0,-99.9,30.03,WSW,246,23.0,31.0,-999,-99.99,,,-99.99,,2013-01-22 00:12:00,
2013-01-21 19:43:00,17.0,-99.9,30.03,West,280,29.0,34.0,-999,-99.99,,,-99.99,,2013-01-22 00:43:00,
2013-01-21 20:12:00,15.0,-99.9,30.04,North,-999,-999.0,-999.0,-999,-99.99,,,-99.99,,2013-01-22 01:12:00,
2013-01-21 20:33:00,15.0,-99.9,30.04,WSW,243,19.0,25.0,-999,-99.99,,,-99.99,,2013-01-22 01:33:00,
2013-01-21 20:43:00,16.0,-99.9,-100.00,WSW,243,23.0,32.0,-999,-99.99,,,-99.99,,2013-01-22 01:43:00,
2013-01-21 21:12:00,16.0,-99.9,30.04,WSW,243,23.0,34.0,-999,-99.99,,,-99.99,,2013-01-22 02:12:00,
2013-01-21 21:33:00,18.0,-99.9,30.05,West,277,32.0,38.0,-999,-99.99,,,-99.99,,2013-01-22 02:33:00,
2013-01-21 21:43:00,16.0,-99.9,-100.00,WNW,293,29.0,36.0,-999,-99.99,,,-99.99,,2013-01-22 02:43:00,
2013-01-21 22:12:00,-999.0,-99.9,-100.00,West,279,33.0,38.0,-999,-99.99,,,-99.99,,2013-01-22 03:12:00,
2013-01-21 22:23:00,16.0,-99.9,30.06,West,280,33.0,42.0,-999,-99.99,,,-99.99,,2013-01-22 03:23:00,
2013-01-21 22:43:00,17.0,-99.9,-100.00,West,267,36.0,40.0,-999,-99.99,,,-99.99,,2013-01-22 03:43:00,
2013-01-21 23:12:00,-999.0,-99.9,-100.00,West,272,31.0,38.0,-999,-99.99,,,-99.99,,2013-01-22 04:12:00,
2013-01-21 23:33:00,16.0,-99.9,30.08,WNW,292,28.0,38.0,-999,-99.99,,,-99.99,,2013-01-22 04:33:00,
2013-01-21 23:43:00,15.0,-99.9,-100.00,WNW,287,28.0,34.0,-999,-99.99,,,-99.99,,2013-01-22 04:43:00,